Regional Weather Roundup
Issued by NWS Charleston, SC

Current Version | Previous Version | Text Only | Print | Product List | Glossary Off
Versions: 1 2 3 4 5 6 7 8 9 10 11 12 13 14 15 16 17 18 19 20 21 22 23 24 25 26 27 28 29 30 31 32 33 34 35 36 37 38 39 40 41 42 43 44 45 46 47 48 49 50

294
ASUS42 KCHS 230827
RWRCHS

REGIONAL WEATHER ROUNDUP
NATIONAL WEATHER SERVICE CHARLESTON SC
300 AM EST MON JAN 23 2017

NOTE: "FAIR" INDICATES FEW OR NO CLOUDS BELOW 12,000 FEET WITH NO
SIGNIFICANT WEATHER AND/OR OBSTRUCTIONS TO VISIBILITY.

NOT ALL STATIONS ARE QUALITY CONTROLLED. USE DATA WITH CAUTION...
ESPECIALLY DEWPOINT OBSERVATIONS.

SCZ027-030-031-034>040-042>050-230900-
...SOUTHEAST SOUTH CAROLINA...

CITY           SKY/WX    TMP DP  RH WIND       PRES   REMARKS
N CHARLESTON   CLEAR     55  48  77 SW8       29.33F
WATERFRONT PRK   N/A     57  52  83 W5        29.33S
MOUNT PLEASANT FAIR      55  50  82 SW5       29.33F
JOHNS ISLAND   FAIR      55  50  82 CALM      29.33F
PINOPOLIS        N/A     55  52  88 SW14      29.24R
MONCKS CORNER  FAIR      54  48  82 SW6       29.31F
SUMMERVILLE    FAIR      54  52  94 SW3       29.32F
BEAUFORT MCAS  CLEAR     52  48  86 SW6       29.33F
BEAUFORT ARPT  FAIR      54  50  87 S5        29.33F
HILTON HEAD IS CLEAR     52  50  93 SW5       29.34F
WALTERBORO     SUNNY     50  48  93 SW3       29.32F
ALLENDALE      FAIR      52  50  93 CALM      29.29F

...SOUTHERN MIDLANDS AND PEE DEE...

CITY           SKY/WX    TMP DP  RH WIND       PRES   REMARKS
GEORGETOWN     FAIR      54  50  87 SW10      29.33R
KINGSTREE      FAIR      54  46  76 SW9       29.30S
ORANGEBURG     CLEAR     53  48  83 SW10      29.30S
BARNWELL       FAIR      52  50  93 CALM      29.30S
AIKEN          FAIR      48  46  93 SW10      29.30F
MANNING        FAIR      54  21  28 SW7       29.30F
COLUMBIA       CLEAR     53  48  83 SW7       29.27R
SUMTER         MOCLDY    53  47  80 SW14      29.26R
FLORENCE       MOCLDY    57  54  89 SW20G29   29.26R
MYRTLE BEACH   MOCLDY    61  52  72 W12G22    29.30R
N MYRTLE BEACH CLEAR     59  58  96 SW12      29.26R

$$

GAZ063-065-086>088-099>101-113>116-118-119-134>141-150-230900-
...SOUTHEAST GEORGIA...

CITY           SKY/WX    TMP DP  RH WIND       PRES   REMARKS
SAVANNAH ARPT  CLEAR     53  48  83 SW7       29.34F
HUNTER AAF     CLEAR     53  53  98 S5        29.32F
FORT STEWART   CLEAR     54  48  80 SW7       29.32F
STATESBORO     PTCLDY    55  51  88 SW7       29.32F
SYLVANIA       MOSUNNY  N/A N/A N/A SW3       29.32F
CLAXTON        FAIR     N/A N/A N/A S5        29.33S

...CSRA...CENTRAL AND FAR SOUTHEAST GEORGIA...

CITY           SKY/WX    TMP DP  RH WIND       PRES   REMARKS
THOMSON        CLOUDY    53  50  90 SW6       29.30F
AUGUSTA-BUSH   MOCLDY    52  47  83 SW5       29.29F
AUGUSTA-DANIEL PTCLDY    52  46  80 S8        29.29F
SWAINSBORO     FAIR      52  48  87 SW5       29.32F
VIDALIA        CLOUDY    54  52  94 SW13      29.32F
EASTMAN        FAIR      54  42  64 SW5       29.34F
HAZLEHURST     FAIR      55  53  93 SW8       29.33F
ALMA           CLEAR     54  49  83 SW6       29.37S
WAYCROSS       CLEAR     55  55 100 SW6       29.37F
JESUP          FAIR      54  50  87 SW5       29.37S
BAXLEY         FAIR      55  52  88 SW6       29.35F
BRUNSWICK      CLEAR     55  52  88 SW10      29.38F
SAINT SIMONS   CLEAR     56  50  80 SW9       29.38F

$$

SCZ027-028-034-036>038-045-046-048>050-GAZ119-141-230900-
...LAKE AND SUPPLEMENTAL COASTAL OBSERVATIONS...

STATION/POSITION TIME  TEMP    WIND        PRES    WAVE   SWELL
                       AIR SEA DIR/SP/G            HT/PER HT/PER/DIR
                 (UTC) (F)     (DEG/KT/KT) (MB)    (FT/S) (FT/S/D)
WINYAH BAY       0745   59     250/ 14      992.0R
LAKE MURRAY      0750   54     230/ 15/ 18  990.9R
ACE BASIN NERRS  0745   55        CALM      993.0F
FORT PULASKI     0800   56 59  220/  5/  7  993.7
SAPELO ISLAND    0800   58     230/ 14      995.0

$$

ANZ835-935-AMZ111-154-330-350-352-354-370-450-454-472-230900-
...C-MAN AND BUOY OBSERVATIONS...

STATION/POSITION TIME  TEMP    WIND        PRES    WAVE   SWELL
                       AIR SEA DIR/SP/G            HT/PER HT/PER/DIR
                 (UTC) (F)     (DEG/KT/KT) (MB)    (FT/S) (FT/S/D)
BUOY 41004       0750   63 65  260/ 27/ 35  992.3R  11/ 8   5/300/16
BUOY 41008       0750   61 60  230/ 19/ 25  993.6F   5/ 7   3/120/ 7
FOLLY BEACH CMAN 0800   56     240/  6/  9  993.9F
CAPERS NEARSHORE 0708   58 56  250/ 19/ 25  992.9R
FRIPP NEARSHORE  0808   59 58  240/ 12/ 16  993.0F


STATION/POSITION TIME  TEMP    WIND        PRES    WAVE   SWELL
                       AIR SEA DIR/SP/G            HT/PER HT/PER/DIR
                 (UTC) (F)     (DEG/KT/KT) (MB)    (FT/S) (FT/S/D)
5E ST. MARYS GA  0800      62                N/A     3/ 6   2/110/13
FRYING PAN BUOY  0810   67 68  230/ 25/ 33  991.5
BUOY 41025       0750   67 71  130/ 14/ 17  995.1F   5/14   5/ 50/14
CAPE LOOKOUT NC  0800   67     150/ 25/ 26  991.0F
BUOY 41002       0750   74 71  180/ 25/ 31  997.5F  13/ 9   8/180/ 9
BUOY 41010       NOT AVBL
ST AUGUSTINE FL  0800   58 65  240/  7/  8  997.7F


$$




USA.gov is the U.S. government's official web portal to all federal, state and local government web resources and services.